Location: Black Swamp Observatory
(41.3920°N, 84.1250°W)
Time: 09:14:34
(UTC-04:00)

BlueWalker 3 - Visible Passes

Search period start: 29 September 2023 00:00
Search period end: 09 October 2023 00:00
Orbit: 491 x 508 km, 53.2° (Epoch: 28 September)

Date Brightness Start Highest point End Pass type
(mag) Time Alt. Az. Time Alt. Az. Time Alt. Az.
29 Sep 4.9 04:38:46 13° NNE 04:38:46 13° NNE 04:39:53 10° NE visible
29 Sep 3.6 06:13:40 10° NW 06:17:06 30° NNE 06:20:33 10° E visible
30 Sep 3.6 05:52:58 15° NNW 05:55:32 30° NNE 05:58:59 10° E visible
01 Oct 3.6 05:32:39 24° N 05:33:57 30° NNE 05:37:23 10° E visible
02 Oct 3.6 05:12:26 30° NNE 05:12:26 30° NNE 05:15:47 10° E visible
02 Oct 2.3 06:47:12 10° WNW 06:50:54 45° SW 06:54:35 10° SSE visible
03 Oct 4.4 04:52:22 22° ENE 04:52:22 22° ENE 04:54:11 10° E visible
03 Oct 2.3 06:27:03 21° WNW 06:29:17 45° SW 06:32:58 10° SSE visible
04 Oct 5.2 04:32:28 10° E 04:32:28 10° E 04:32:33 10° E visible
04 Oct 2.2 06:07:09 42° WSW 06:07:39 45° SW 06:11:20 10° SSE visible
05 Oct 3.1 05:47:25 30° S 05:47:25 30° S 05:49:41 10° SSE visible
06 Oct 4.6 05:27:49 11° SSE 05:27:49 11° SSE 05:28:01 10° SSE visible
06 Oct 4.4 20:45:11 10° S 20:45:16 10° S 20:45:16 10° S visible
07 Oct 3.6 20:23:30 10° S 20:25:30 18° SE 20:25:30 18° SE visible
08 Oct 3.4 20:01:48 10° S 20:04:33 19° SE 20:05:32 17° ESE visible
08 Oct 4.3 21:38:56 10° WSW 21:40:12 20° WSW 21:40:12 20° WSW visible
